Simultaneous Nadir Overpasses (SNOs) Predictions

Prediction of SNOs between GOES-15 and TERRA Satellite Orbit:

Table of predicted SNOs for the next 14.0 days since TLE Epoch: 9/5/2020
Index Date Time (GOES-15) GOES-15 Lat,Lon TERRA Lat,Lon Distance(km) Time Diff (sec)
1 09/06/2020 18:47:58 0.03,-127.94 -0.61,-124.82 354.98 80
2 09/07/2020 07:12:03 -0.04,-128.01 -0.44,-130.02 228.12 80
3 09/09/2020 06:57:11 -0.04,-128.07 0.16,-127.06 114.45 80
4 09/09/2020 19:21:05 0.05,-128.03 0.96,-132.21 475.62 80
5 09/11/2020 06:45:00 -0.04,-128.12 0.83,-124.11 456.30 80
6 09/11/2020 19:08:55 0.05,-128.08 0.30,-129.26 133.88 80
7 09/13/2020 18:54:03 0.05,-128.12 -0.31,-126.30 207.22 80
8 09/14/2020 07:18:07 -0.06,-128.19 -0.74,-131.50 376.10 80
9 09/16/2020 07:05:55 -0.06,-128.22 -0.13,-128.54 35.66 80
10 09/18/2020 06:51:04 -0.05,-128.26 0.49,-125.58 304.42 80
11 09/18/2020 19:14:59 0.06,-128.21 0.58,-130.74 286.52 80
